Location: Arpaise
(41.0333°N, 14.7333°E)
Time: 20:56:25
(UTC+00:00)

Cosmos 846 Rocket - Pass Details

Date: 21 January 2021
Orbit: 948 x 991 km, 82.9° (Epoch: 06 March)

Event Time Altitude Azimuth Distance (km) Brightness Sun altitude
Rises 05:24:56 0° 354° (N) 3,634 8.3 -10.6°
Reaches altitude 10° 05:27:27 10° 356° (N) 2,682 7.6 -10.2°
Maximum altitude 05:33:34 74° 82° (E) 989 5.7 -9.1°
Drops below altitude 10° 05:39:39 10° 167° (SSE) 2,664 8.3 -8.0°
Sets 05:42:08 0° 169° (S) 3,608 8.9 -7.5°
